Weather in Uryum

Russia / Republic of Tatarstan     54°46′21″N   48°45′29″E
temp.,
°C
wind,
m/s
gust,
m/s
humid.,
%
clouds,
%
prec.,
mm/h
press.,
hPa
HPBL,
m
6 march, sat
sat600:00−12sw33940 0.0 101034
03:00−11wsw369648 0.1 1011126
06:00−12wnw499570 0.0 1012187
09:00−11wnw5119063 0.0 1014355
12:00−10wnw36870 0.0 1015317
15:00−10w24880 0.0 1014240
18:00−14sw23907 0.0 101425
21:00−15wsw23884 0.0 101422
7 march, sun
sun700:00−16wsw229114 0.0 101320
03:00−14wsw229651 0.1 101323
06:00−16wsw239885 0.1 101221
09:00−13wsw359592 0.1 1012207
12:00−10sw369395 0.0 1011331
15:00−7ssw488996 0.1 1008666
18:00−8s4128891 0.0 1006396
21:00−8s6138996 0.0 1004670
8 march, mon
mon800:00−7s91594100 1.2 998905
03:00−5ssw81595100 2.8 996983
06:00−8wsw7158793 0.4 996605
09:00−9sw7168375 0.4 998660
12:00−5sw7137598 0.0 998842
15:00−4sw7128799 0.1 9971240
18:00−7sw41085100 0.4 996275
21:00−9wsw6129188 0.4 999334
9 march, tue
tue900:00−10wsw5129224 0.0 1001299
03:00−11wsw5119354 0.0 1002310
06:00−11w51193100 0.2 1004403
09:00−11wnw599294 0.3 1006398
12:00−9wnw578998 0.0 1008641
15:00−9w468999 0.1 1010738
18:00−11wnw3795100 0.3 1010243
21:00−13wnw3795100 0.4 1012238
10 march, wed
wed1000:00−15wnw489693 0.1 1012178
03:00−15wnw489593 0.1 1013216
06:00−19wnw489790 0.0 1014172
09:00−19nw489590 0.1 1015266
12:00−17wnw469395 0.0 1015334
15:00−16wnw469091 0.0 1016445
18:00−21nw239627 0.0 101725
21:00−23nw339538 0.0 101826